Regional Weather Roundup
Issued by NWS Cleveland, OH

Home | Current Version | Previous Version | Graphics & Text | Print | Product List | Glossary On
Versions: 1 2 3 4 5 6 7 8 9 10 11 12 13 14 15 16 17 18 19 20 21 22 23 24 25 26 27 28 29 30 31 32 33 34 35 36 37 38 39 40 41 42 43 44 45 46 47 48 49 50
756
ASUS41 KCLE 061300
RWRCLE
OHIO REGIONAL WEATHER ROUNDUP
NATIONAL WEATHER SERVICE WILMINGTON, OH
900 AM EDT FRI MAY 06 2016

NOTE: "FAIR" INDICATES FEW OR NO CLOUDS BELOW 12,000 FEET WITH NO
SIGNIFICANT WEATHER AND/OR OBSTRUCTIONS TO VISIBILITY.

OHZ001>008-015>018-024>027-034-035-043-044-061400-
   NORTHWEST OHIO

CITY           SKY/WX    TMP DP  RH WIND       PRES   REMARKS
DEFIANCE       FAIR      53  43  68 NW5       29.98R
FINDLAY        FAIR      58  36  43 N7        29.95R
TOLEDO EXPRESS FAIR      56  41  57 NW5       29.97R
TOLEDO EXEC    FAIR      57  39  51 N6        29.97R
LIMA           FAIR      54  44  69 N3        29.96R
$$

OHZ009>014-019>023-028>033-038-089-061400-
   NORTHEAST OHIO

CITY           SKY/WX    TMP DP  RH WIND       PRES   REMARKS
CLE-HOPKINS    FAIR      54  42  64 N9        29.94R
CLE-LAKEFRONT  FAIR      52  45  77 NW8       29.91R
CUY CO. ARPT   NOT AVBL
LORAIN-ELYRIA  FAIR      53  42  66 N9        29.93R
ASHTABULA      FAIR      53  42  66 VRB3      29.89R
AKRON-CANTON   FAIR      52  41  66 N14G20    29.88R
WOOSTER        NOT AVBL
MANSFIELD      FAIR      52  42  69 NW10      29.93R
YOUNGSTOWN     FAIR      54  40  59 N9        29.86S
$$

OHZ042-051>053-060>062-070>072-077>081-061400-
  SOUTHWEST OHIO

CITY           SKY/WX    TMP DP  RH WIND       PRES   REMARKS
CINC-COVINGTON FAIR      55  44  66 N8        29.97R
CINC-LUNKEN    FAIR      54  45  71 N5        29.98R
HAMILTON       FAIR      55  44  66 N7        29.98R
DAYTON         NOT AVBL
WRIGHT-PAT AFB FAIR      53  46  77 N9        29.96R
DAYTON GENERAL FAIR      54  41  61 N8        29.96R
WILMINGTON     FAIR      53  41  63 N12       29.95R
$$

OHZ036-037-039>041-045>050-054>059-063>069-073>076-082>088-061400-
  CENTRAL AND SOUTHEAST OHIO

CITY           SKY/WX    TMP DP  RH WIND       PRES   REMARKS
COLUMBUS       FAIR      53  40  61 N10       29.92R
OSU AIRPORT    FAIR      54  40  59 N7        29.93R
BOLTON FIELD   SUNNY     54  41  62 N9        29.94R
RICKENBACK AFB NOT AVBL
NEWARK         FAIR      58  39  49 N7        29.91R
MARION         FAIR      53  40  61 N10       29.95R
LANCASTER      FAIR      53  43  68 NW8       29.92R
ZANESVILLE     FAIR      57  43  59 N7        29.88S
NEW PHILLY     FAIR      53  42  66 NW7       29.88S
$$




USA.gov is the U.S. government's official web portal to all federal, state and local government web resources and services.